Погода в Буфте

Румыния     44°33′30″N   25°56′30″E
темп.,
°C
ветер,
м/с
пор.,
м/с
влажн.,
%
обл.,
%
осадки,
мм/ч
давл.,
гПа
погр.,
м
25 октября, пн
пн2500:00+11в454998 0.0 1034445
03:00+9в475160 0.0 1034471
06:00+7в46547 0.0 1033355
09:00+7в35545 0.0 1034376
12:00+10в33445 0.0 1034823
15:00+12в22415 0.0 10321094
18:00+11в33450 0.0 1031618
21:00+10в35490 0.0 1031315
26 октября, вт
вт2600:00+8в35530 0.0 1031214
03:00+7в24620 0.0 1030167
06:00+6всв23650 0.0 1029144
09:00+6всв34670 0.0 1029241
12:00+10в34550 0.0 1028779
15:00+13вюв33481 0.0 10261122
18:00+12в23520 0.0 1025539
21:00+11всв35600 0.0 1025199
27 октября, ср
ср2700:00+9св227278 0.0 102575
03:00+10в127298 0.0 1024180
06:00+9юв127323 0.0 102486
09:00+9ююв11720 0.0 1025100
12:00+12юв11570 0.0 1025668
15:00+14в115045 0.0 10241116
18:00+14в2352100 0.0 1024662
21:00+12в225981 0.0 102555
28 октября, чт
чт2800:00+11всв246366 0.0 1026116
03:00+9всв2370100 0.0 1027107
06:00+9всв247152 0.0 1027118
09:00+8всв36575 0.0 1028232
12:00+12всв34465 0.0 1028635
15:00+14всв34425 0.0 10271027
18:00+13в24505 0.0 1026516
21:00+12всв35590 0.0 1027148
29 октября, пт
пт2900:00+10всв246623 0.0 1027114
03:00+9всв23694 0.0 1027107
06:00+8всв24690 0.0 1027115
09:00+8всв24650 0.0 1028165
12:00+12в35490 0.0 1028635
15:00+14в34365 0.0 1025885
18:00+13в35395 0.0 1025365
21:00+11всв35440 0.0 1025128